Time,TemperatureF,DewpointF,PressureIn,WindDirection,WindDirectionDegrees,WindSpeedMPH,WindSpeedGustMPH,Humidity,HourlyPrecipIn,Conditions,Clouds,dailyrainin,SoftwareType,DateUTC
2013-04-14 00:00:00,71.8,67.7,29.89,South,188,0.0,0.0,87,0.00,,,0.00,Wunderground PWS Mod,2013-04-14 04:00:00,
2013-04-14 00:02:00,71.3,67.6,29.89,N/A,-737280,0.0,0.0,88,0.00,,,0.00,Wunderground PWS Mod,2013-04-14 04:02:00,
2013-04-14 00:06:00,71.6,67.5,29.89,South,188,0.0,0.0,87,0.00,,,0.00,Wunderground PWS Mod,2013-04-14 04:06:00,
2013-04-14 00:08:00,71.6,67.5,29.89,South,188,0.0,0.0,87,0.00,,,0.00,Wunderground PWS Mod,2013-04-14 04:08:00,
2013-04-14 00:10:00,71.6,67.5,29.89,South,188,0.0,0.0,87,0.00,,,0.00,Wunderground PWS Mod,2013-04-14 04:10:00,
2013-04-14 00:16:00,71.5,67.8,29.89,South,188,0.0,0.0,88,0.00,,,0.00,Wunderground PWS Mod,2013-04-14 04:16:00,
2013-04-14 00:18:00,71.5,67.8,29.89,South,188,0.0,0.0,88,0.00,,,0.00,Wunderground PWS Mod,2013-04-14 04:18:00,
2013-04-14 00:24:00,71.1,67.4,29.89,South,188,0.0,0.0,88,0.00,,,0.00,Wunderground PWS Mod,2013-04-14 04:24:00,
2013-04-14 00:30:00,71.1,67.7,29.89,South,188,0.0,0.0,89,0.00,,,0.00,Wunderground PWS Mod,2013-04-14 04:30:00,
2013-04-14 00:32:00,70.9,67.8,29.89,N/A,-737280,0.0,0.0,90,0.00,,,0.00,Wunderground PWS Mod,2013-04-14 04:32:00,
2013-04-14 00:36:00,71.1,67.7,29.89,South,188,0.0,0.0,89,0.00,,,0.00,Wunderground PWS Mod,2013-04-14 04:36:00,
2013-04-14 00:42:00,70.9,67.5,29.89,South,188,0.0,0.0,89,0.00,,,0.00,Wunderground PWS Mod,2013-04-14 04:42:00,
2013-04-14 00:48:00,70.9,67.8,29.89,South,188,0.0,0.0,90,0.00,,,0.00,Wunderground PWS Mod,2013-04-14 04:48:00,
2013-04-14 00:54:00,71.1,68.0,29.89,South,188,0.0,0.0,90,0.00,,,0.00,Wunderground PWS Mod,2013-04-14 04:54:00,
2013-04-14 01:00:00,71.1,68.0,29.89,South,188,0.0,0.0,90,0.00,,,0.00,Wunderground PWS Mod,2013-04-14 05:00:00,
2013-04-14 01:04:00,71.1,68.0,29.90,N/A,-737280,0.0,0.0,90,0.00,,,0.00,Wunderground PWS Mod,2013-04-14 05:04:00,
2013-04-14 01:06:00,71.1,68.0,29.90,South,188,0.0,0.0,90,0.00,,,0.00,Wunderground PWS Mod,2013-04-14 05:06:00,
2013-04-14 01:12:00,71.3,68.2,29.90,South,188,0.0,0.0,90,0.00,,,0.00,Wunderground PWS Mod,2013-04-14 05:12:00,
2013-04-14 01:18:00,71.1,68.0,29.90,South,188,0.0,0.0,90,0.00,,,0.00,Wunderground PWS Mod,2013-04-14 05:18:00,
2013-04-14 01:24:00,71.1,68.0,29.90,South,188,0.0,0.0,90,0.00,,,0.00,Wunderground PWS Mod,2013-04-14 05:24:00,
2013-04-14 01:30:00,71.1,68.0,29.90,South,188,0.0,0.0,90,0.00,,,0.00,Wunderground PWS Mod,2013-04-14 05:30:00,
2013-04-14 01:34:00,70.4,67.6,29.89,N/A,-737280,0.0,0.0,91,0.00,,,0.00,Wunderground PWS Mod,2013-04-14 05:34:00,
2013-04-14 01:36:00,70.9,67.8,29.89,South,188,0.0,0.0,90,0.00,,,0.00,Wunderground PWS Mod,2013-04-14 05:36:00,
2013-04-14 01:42:00,70.8,67.7,29.89,South,188,0.0,0.0,90,0.00,,,0.00,Wunderground PWS Mod,2013-04-14 05:42:00,
2013-04-14 01:48:00,70.6,67.5,29.89,South,188,0.0,0.0,90,0.00,,,0.00,Wunderground PWS Mod,2013-04-14 05:48:00,
2013-04-14 01:54:00,70.4,67.6,29.89,South,188,0.0,0.0,91,0.00,,,0.00,Wunderground PWS Mod,2013-04-14 05:54:00,
2013-04-14 01:58:00,70.4,67.6,29.89,N/A,-737280,0.0,0.0,91,0.00,,,0.00,Wunderground PWS Mod,2013-04-14 05:58:00,
2013-04-14 02:00:00,70.4,67.6,29.89,South,188,0.0,0.0,91,0.00,,,0.00,Wunderground PWS Mod,2013-04-14 06:00:00,
2013-04-14 02:06:00,70.4,67.6,29.89,South,188,0.0,0.0,91,0.00,,,0.00,Wunderground PWS Mod,2013-04-14 06:06:00,
2013-04-14 02:12:00,70.4,67.6,29.89,South,188,0.0,0.0,91,0.00,,,0.00,Wunderground PWS Mod,2013-04-14 06:12:00,
2013-04-14 02:18:00,70.4,67.6,29.89,South,188,0.0,0.0,91,0.00,,,0.00,Wunderground PWS Mod,2013-04-14 06:18:00,
2013-04-14 02:24:00,70.3,67.5,29.88,South,188,0.0,0.0,91,0.00,,,0.00,Wunderground PWS Mod,2013-04-14 06:24:00,
2013-04-14 02:28:00,69.9,67.5,29.89,N/A,-737280,0.0,0.0,92,0.00,,,0.00,Wunderground PWS Mod,2013-04-14 06:28:00,
2013-04-14 02:30:00,70.1,67.3,29.88,South,188,0.0,0.0,91,0.00,,,0.00,Wunderground PWS Mod,2013-04-14 06:30:00,
2013-04-14 02:36:00,69.9,67.2,29.89,South,188,0.0,0.0,91,0.00,,,0.00,Wunderground PWS Mod,2013-04-14 06:36:00,
2013-04-14 02:42:00,69.9,67.5,29.89,South,188,0.0,0.0,92,0.00,,,0.00,Wunderground PWS Mod,2013-04-14 06:42:00,
2013-04-14 02:48:00,69.9,67.5,29.89,South,188,0.0,0.0,92,0.00,,,0.00,Wunderground PWS Mod,2013-04-14 06:48:00,
2013-04-14 02:54:00,69.9,67.5,29.88,South,188,0.0,0.0,92,0.00,,,0.00,Wunderground PWS Mod,2013-04-14 06:54:00,
2013-04-14 03:00:00,69.8,67.4,29.88,South,188,0.0,0.0,92,0.00,,,0.00,Wunderground PWS Mod,2013-04-14 07:00:00,
2013-04-14 03:06:00,69.6,67.2,29.88,South,188,0.0,0.0,92,0.00,,,0.00,Wunderground PWS Mod,2013-04-14 07:06:00,
2013-04-14 03:12:00,69.6,67.2,29.88,South,188,0.0,0.0,92,0.00,,,0.00,Wunderground PWS Mod,2013-04-14 07:12:00,
2013-04-14 03:18:00,69.6,67.2,29.88,South,188,0.0,0.0,92,0.00,,,0.00,Wunderground PWS Mod,2013-04-14 07:18:00,
2013-04-14 03:20:00,69.6,67.5,29.88,N/A,-737280,0.0,0.0,93,0.00,,,0.00,Wunderground PWS Mod,2013-04-14 07:20:00,
2013-04-14 03:28:00,69.4,67.0,29.88,South,188,0.0,0.0,92,0.00,,,0.00,Wunderground PWS Mod,2013-04-14 07:28:00,
2013-04-14 03:34:00,69.6,67.5,29.88,South,188,0.0,0.0,93,0.00,,,0.00,Wunderground PWS Mod,2013-04-14 07:34:00,
2013-04-14 03:40:00,69.6,67.5,29.88,South,188,0.0,0.0,93,0.00,,,0.00,Wunderground PWS Mod,2013-04-14 07:40:00,
2013-04-14 03:46:00,69.6,67.5,29.88,South,188,0.0,0.0,93,0.00,,,0.00,Wunderground PWS Mod,2013-04-14 07:46:00,
2013-04-14 03:48:00,69.3,67.2,29.87,N/A,-737280,0.0,0.0,93,0.00,,,0.00,Wunderground PWS Mod,2013-04-14 07:48:00,
2013-04-14 03:52:00,69.4,67.3,29.87,South,188,0.0,0.0,93,0.00,,,0.00,Wunderground PWS Mod,2013-04-14 07:52:00,
2013-04-14 03:58:00,69.3,67.2,29.87,South,188,0.0,0.0,93,0.00,,,0.00,Wunderground PWS Mod,2013-04-14 07:58:00,
2013-04-14 04:04:00,69.3,67.2,29.87,South,188,0.0,0.0,93,0.00,,,0.00,Wunderground PWS Mod,2013-04-14 08:04:00,
2013-04-14 04:10:00,69.1,67.0,29.87,South,188,0.0,0.0,93,0.00,,,0.00,Wunderground PWS Mod,2013-04-14 08:10:00,
2013-04-14 04:14:00,68.8,66.7,29.87,N/A,-737280,0.0,0.0,93,0.00,,,0.00,Wunderground PWS Mod,2013-04-14 08:14:00,
2013-04-14 04:16:00,69.1,67.0,29.87,South,188,0.0,0.0,93,0.00,,,0.00,Wunderground PWS Mod,2013-04-14 08:16:00,
2013-04-14 04:22:00,68.9,66.8,29.87,South,188,0.0,0.0,93,0.00,,,0.00,Wunderground PWS Mod,2013-04-14 08:22:00,
2013-04-14 04:30:00,68.8,66.7,29.87,South,188,0.0,0.0,93,0.00,,,0.00,Wunderground PWS Mod,2013-04-14 08:30:00,
2013-04-14 04:36:00,68.8,66.7,29.88,South,188,0.0,0.0,93,0.00,,,0.00,Wunderground PWS Mod,2013-04-14 08:36:00,
2013-04-14 04:38:00,68.4,66.3,29.87,N/A,-737280,0.0,0.0,93,0.00,,,0.00,Wunderground PWS Mod,2013-04-14 08:38:00,
2013-04-14 04:42:00,68.8,66.7,29.88,South,188,0.0,0.0,93,0.00,,,0.00,Wunderground PWS Mod,2013-04-14 08:42:00,
2013-04-14 04:48:00,68.6,66.5,29.88,South,188,0.0,0.0,93,0.00,,,0.00,Wunderground PWS Mod,2013-04-14 08:48:00,
2013-04-14 04:54:00,68.4,66.3,29.87,South,188,0.0,0.0,93,0.00,,,0.00,Wunderground PWS Mod,2013-04-14 08:54:00,
2013-04-14 05:00:00,68.4,66.3,29.87,South,188,0.0,0.0,93,0.00,,,0.00,Wunderground PWS Mod,2013-04-14 09:00:00,
2013-04-14 05:04:00,67.9,65.8,29.86,N/A,-737280,0.0,0.0,93,0.00,,,0.00,Wunderground PWS Mod,2013-04-14 09:04:00,
2013-04-14 05:06:00,68.4,66.3,29.86,South,188,0.0,0.0,93,0.00,,,0.00,Wunderground PWS Mod,2013-04-14 09:06:00,
2013-04-14 05:12:00,68.3,66.2,29.86,South,188,0.0,0.0,93,0.00,,,0.00,Wunderground PWS Mod,2013-04-14 09:12:00,
2013-04-14 05:18:00,68.1,66.0,29.86,South,188,0.0,0.0,93,0.00,,,0.00,Wunderground PWS Mod,2013-04-14 09:18:00,
2013-04-14 05:24:00,67.9,65.8,29.86,South,188,0.0,0.0,93,0.00,,,0.00,Wunderground PWS Mod,2013-04-14 09:24:00,
2013-04-14 05:30:00,67.9,65.8,29.86,South,188,0.0,0.0,93,0.00,,,0.00,Wunderground PWS Mod,2013-04-14 09:30:00,
2013-04-14 05:36:00,67.9,66.1,29.87,South,188,0.0,0.0,94,0.00,,,0.00,Wunderground PWS Mod,2013-04-14 09:36:00,
2013-04-14 05:42:00,67.9,66.1,29.87,South,188,0.0,0.0,94,0.00,,,0.00,Wunderground PWS Mod,2013-04-14 09:42:00,
2013-04-14 05:48:00,67.9,66.1,29.87,South,188,0.0,0.0,94,0.00,,,0.00,Wunderground PWS Mod,2013-04-14 09:48:00,
2013-04-14 05:54:00,67.9,66.1,29.86,South,188,0.0,0.0,94,0.00,,,0.00,Wunderground PWS Mod,2013-04-14 09:54:00,
2013-04-14 05:58:00,67.9,66.1,29.86,N/A,-737280,0.0,0.0,94,0.00,,,0.00,Wunderground PWS Mod,2013-04-14 09:58:00,
2013-04-14 06:00:00,67.9,66.1,29.86,South,188,0.0,0.0,94,0.00,,,0.00,Wunderground PWS Mod,2013-04-14 10:00:00,
2013-04-14 06:08:00,67.9,66.1,29.86,South,188,0.0,0.0,94,0.00,,,0.00,Wunderground PWS Mod,2013-04-14 10:08:00,
2013-04-14 06:14:00,67.8,66.0,29.86,South,188,0.0,0.0,94,0.00,,,0.00,Wunderground PWS Mod,2013-04-14 10:14:00,
2013-04-14 06:20:00,67.9,66.1,29.86,South,188,0.0,0.0,94,0.00,,,0.00,Wunderground PWS Mod,2013-04-14 10:20:00,
2013-04-14 06:36:00,67.6,65.8,29.86,N/A,-737280,0.0,0.0,94,0.00,,,0.00,Wunderground PWS Mod,2013-04-14 10:36:00,
2013-04-14 06:40:00,67.8,66.0,29.86,South,188,0.0,0.0,94,0.00,,,0.00,Wunderground PWS Mod,2013-04-14 10:40:00,
2013-04-14 06:46:00,67.8,66.0,29.86,South,188,0.0,0.0,94,0.00,,,0.00,Wunderground PWS Mod,2013-04-14 10:46:00,
2013-04-14 06:52:00,67.6,65.8,29.86,South,188,0.0,0.0,94,0.00,,,0.00,Wunderground PWS Mod,2013-04-14 10:52:00,
2013-04-14 06:58:00,67.6,65.8,29.86,South,188,0.0,0.0,94,0.00,,,0.00,Wunderground PWS Mod,2013-04-14 10:58:00,
2013-04-14 07:04:00,67.4,65.6,29.86,South,188,0.0,0.0,94,0.00,,,0.00,Wunderground PWS Mod,2013-04-14 11:04:00,
2013-04-14 07:06:00,67.6,66.1,29.86,N/A,-737280,0.0,0.0,95,0.00,,,0.00,Wunderground PWS Mod,2013-04-14 11:06:00,
2013-04-14 07:10:00,67.4,65.6,29.86,South,188,0.0,0.0,94,0.00,,,0.00,Wunderground PWS Mod,2013-04-14 11:10:00,
2013-04-14 07:16:00,67.4,65.6,29.86,South,188,0.0,0.0,94,0.00,,,0.00,Wunderground PWS Mod,2013-04-14 11:16:00,
2013-04-14 07:22:00,67.6,66.1,29.86,South,188,0.0,0.0,95,0.00,,,0.00,Wunderground PWS Mod,2013-04-14 11:22:00,
2013-04-14 07:28:00,67.6,66.1,29.86,South,188,0.0,0.0,95,0.00,,,0.00,Wunderground PWS Mod,2013-04-14 11:28:00,
2013-04-14 07:30:00,68.9,67.4,29.87,N/A,-737280,0.0,0.0,95,0.00,,,0.00,Wunderground PWS Mod,2013-04-14 11:30:00,
2013-04-14 07:34:00,67.8,66.3,29.87,South,188,0.0,0.0,95,0.00,,,0.00,Wunderground PWS Mod,2013-04-14 11:34:00,
2013-04-14 07:40:00,68.1,66.6,29.87,South,188,0.0,0.0,95,0.00,,,0.00,Wunderground PWS Mod,2013-04-14 11:40:00,
2013-04-14 07:46:00,68.8,67.3,29.87,South,188,0.0,0.0,95,0.00,,,0.00,Wunderground PWS Mod,2013-04-14 11:46:00,
2013-04-14 07:52:00,68.9,67.4,29.87,South,188,0.0,0.0,95,0.00,,,0.00,Wunderground PWS Mod,2013-04-14 11:52:00,
2013-04-14 07:54:00,70.4,68.9,29.88,N/A,-737280,0.0,0.0,95,0.00,,,0.00,Wunderground PWS Mod,2013-04-14 11:54:00,
2013-04-14 07:58:00,69.4,67.9,29.87,South,188,0.0,0.0,95,0.00,,,0.00,Wunderground PWS Mod,2013-04-14 11:58:00,
2013-04-14 08:04:00,69.8,68.3,29.88,South,188,0.0,0.0,95,0.00,,,0.00,Wunderground PWS Mod,2013-04-14 12:04:00,
2013-04-14 08:10:00,70.1,68.6,29.88,South,188,0.0,0.0,95,0.00,,,0.00,Wunderground PWS Mod,2013-04-14 12:10:00,
2013-04-14 08:16:00,70.6,69.1,29.88,South,188,0.0,0.0,95,0.00,,,0.00,Wunderground PWS Mod,2013-04-14 12:16:00,
2013-04-14 08:20:00,72.5,71.0,29.89,N/A,-737280,0.0,0.0,95,0.00,,,0.00,Wunderground PWS Mod,2013-04-14 12:20:00,
2013-04-14 08:22:00,70.9,69.4,29.88,South,188,0.0,0.0,95,0.00,,,0.00,Wunderground PWS Mod,2013-04-14 12:22:00,
2013-04-14 08:28:00,71.5,70.0,29.88,South,188,0.0,0.0,95,0.00,,,0.00,Wunderground PWS Mod,2013-04-14 12:28:00,
2013-04-14 08:34:00,72.0,70.5,29.89,South,188,0.0,0.0,95,0.00,,,0.00,Wunderground PWS Mod,2013-04-14 12:34:00,
2013-04-14 08:40:00,72.5,71.0,29.89,South,188,0.0,1.0,95,0.00,,,0.00,Wunderground PWS Mod,2013-04-14 12:40:00,
2013-04-14 08:46:00,72.8,71.3,29.89,South,188,0.0,0.0,95,0.00,,,0.00,Wunderground PWS Mod,2013-04-14 12:46:00,
2013-04-14 08:48:00,74.0,72.5,29.89,N/A,-737280,0.0,0.0,95,0.00,,,0.00,Wunderground PWS Mod,2013-04-14 12:48:00,
2013-04-14 08:54:00,73.2,71.7,29.89,South,188,0.0,0.0,95,0.00,,,0.00,Wunderground PWS Mod,2013-04-14 12:54:00,
2013-04-14 09:00:00,73.3,71.8,29.89,WSW,248,0.0,2.0,95,0.00,,,0.00,Wunderground PWS Mod,2013-04-14 13:00:00,
2013-04-14 09:06:00,73.9,72.4,29.89,SW,232,0.0,0.0,95,0.00,,,0.00,Wunderground PWS Mod,2013-04-14 13:06:00,
2013-04-14 09:12:00,74.4,72.9,29.89,SSW,194,0.0,0.0,95,0.00,,,0.00,Wunderground PWS Mod,2013-04-14 13:12:00,
2013-04-14 09:18:00,75.1,73.6,29.89,SSW,194,0.0,0.0,95,0.00,,,0.00,Wunderground PWS Mod,2013-04-14 13:18:00,
2013-04-14 09:20:00,77.9,75.4,29.89,N/A,-737280,0.0,0.0,92,0.00,,,0.00,Wunderground PWS Mod,2013-04-14 13:20:00,
2013-04-14 09:24:00,75.8,73.9,29.88,South,183,0.0,0.0,94,0.00,,,0.00,Wunderground PWS Mod,2013-04-14 13:24:00,
2013-04-14 09:30:00,76.7,74.8,29.88,South,183,0.0,0.0,94,0.00,,,0.00,Wunderground PWS Mod,2013-04-14 13:30:00,
2013-04-14 09:36:00,77.4,75.2,29.89,SE,134,0.0,1.0,93,0.00,,,0.00,Wunderground PWS Mod,2013-04-14 13:36:00,
2013-04-14 09:42:00,78.3,75.5,29.89,NNE,30,0.0,1.0,91,0.00,,,0.00,Wunderground PWS Mod,2013-04-14 13:42:00,
2013-04-14 09:46:00,80.5,74.5,29.89,SW,225,0.0,2.0,82,0.00,,,0.00,Wunderground PWS Mod,2013-04-14 13:46:00,
2013-04-14 09:48:00,79.0,75.5,29.89,NNW,342,0.0,0.0,89,0.00,,,0.00,Wunderground PWS Mod,2013-04-14 13:48:00,
2013-04-14 09:54:00,79.6,75.0,29.89,South,169,0.0,3.0,86,0.00,,,0.00,Wunderground PWS Mod,2013-04-14 13:54:00,
2013-04-14 10:00:00,79.9,74.3,29.89,WSW,244,0.0,4.0,83,0.00,,,0.00,Wunderground PWS Mod,2013-04-14 14:00:00,
2013-04-14 10:06:00,80.5,74.5,29.89,SW,226,1.0,3.0,82,0.00,,,0.00,Wunderground PWS Mod,2013-04-14 14:06:00,
2013-04-14 10:10:00,81.4,73.1,29.89,South,180,0.0,2.0,76,0.00,,,0.00,Wunderground PWS Mod,2013-04-14 14:10:00,
2013-04-14 10:12:00,81.1,74.3,29.89,South,182,1.0,1.0,80,0.00,,,0.00,Wunderground PWS Mod,2013-04-14 14:12:00,
2013-04-14 10:18:00,81.2,73.7,29.89,NNE,30,1.0,1.0,78,0.00,,,0.00,Wunderground PWS Mod,2013-04-14 14:18:00,
2013-04-14 10:24:00,81.2,73.3,29.89,SW,226,0.0,0.0,77,0.00,,,0.00,Wunderground PWS Mod,2013-04-14 14:24:00,
2013-04-14 10:30:00,81.2,72.9,29.89,South,186,0.0,0.0,76,0.00,,,0.00,Wunderground PWS Mod,2013-04-14 14:30:00,
2013-04-14 10:38:00,82.4,74.5,29.89,South,191,1.0,3.0,77,0.00,,,0.00,Wunderground PWS Mod,2013-04-14 14:38:00,
2013-04-14 10:44:00,83.6,73.6,29.89,SW,234,1.0,3.0,72,0.00,,,0.00,Wunderground PWS Mod,2013-04-14 14:44:00,
2013-04-14 10:50:00,84.0,72.7,29.89,SSW,206,1.0,3.0,69,0.00,,,0.00,Wunderground PWS Mod,2013-04-14 14:50:00,
2013-04-14 10:56:00,85.1,74.2,29.89,WSW,245,1.0,1.0,70,0.00,,,0.00,Wunderground PWS Mod,2013-04-14 14:56:00,
2013-04-14 11:02:00,85.9,72.8,29.89,ESE,121,0.0,2.0,65,0.00,,,0.00,Wunderground PWS Mod,2013-04-14 15:02:00,
2013-04-14 11:08:00,85.7,72.1,29.89,South,173,1.0,3.0,64,0.00,,,0.00,Wunderground PWS Mod,2013-04-14 15:08:00,
2013-04-14 11:14:00,86.1,73.0,29.89,North,355,1.0,4.0,65,0.00,,,0.00,Wunderground PWS Mod,2013-04-14 15:14:00,
2013-04-14 11:20:00,86.1,73.9,29.89,WSW,240,2.0,4.0,67,0.00,,,0.00,Wunderground PWS Mod,2013-04-14 15:20:00,
2013-04-14 11:28:00,86.7,73.1,29.89,ESE,123,2.0,3.0,64,0.00,,,0.00,Wunderground PWS Mod,2013-04-14 15:28:00,
2013-04-14 11:34:00,86.7,72.1,29.89,South,183,1.0,4.0,62,0.00,,,0.00,Wunderground PWS Mod,2013-04-14 15:34:00,
2013-04-14 11:40:00,87.0,72.9,29.89,South,180,2.0,5.0,63,0.00,,,0.00,Wunderground PWS Mod,2013-04-14 15:40:00,
2013-04-14 11:46:00,87.6,72.5,29.89,South,182,1.0,5.0,61,0.00,,,0.00,Wunderground PWS Mod,2013-04-14 15:46:00,
2013-04-14 11:52:00,86.1,72.5,29.89,South,183,2.0,7.0,64,0.00,,,0.00,Wunderground PWS Mod,2013-04-14 15:52:00,
2013-04-14 11:58:00,85.5,72.8,29.89,South,178,1.0,2.0,66,0.00,,,0.00,Wunderground PWS Mod,2013-04-14 15:58:00,
2013-04-14 12:04:00,85.7,72.6,29.89,SW,215,1.0,2.0,65,0.00,,,0.00,Wunderground PWS Mod,2013-04-14 16:04:00,
2013-04-14 12:10:00,86.1,72.0,29.89,South,189,2.0,7.0,63,0.00,,,0.00,Wunderground PWS Mod,2013-04-14 16:10:00,
2013-04-14 12:16:00,86.7,72.1,29.89,SE,127,2.0,5.0,62,0.00,,,0.00,Wunderground PWS Mod,2013-04-14 16:16:00,
2013-04-14 12:22:00,87.6,73.0,29.89,WSW,252,2.0,3.0,62,0.00,,,0.00,Wunderground PWS Mod,2013-04-14 16:22:00,
2013-04-14 12:28:00,88.4,72.7,29.89,West,265,1.0,4.0,60,0.00,,,0.00,Wunderground PWS Mod,2013-04-14 16:28:00,
2013-04-14 12:32:00,86.5,73.3,29.88,SSE,158,2.0,3.0,65,0.00,,,0.00,Wunderground PWS Mod,2013-04-14 16:32:00,
2013-04-14 12:34:00,87.8,72.7,29.88,South,180,2.0,6.0,61,0.00,,,0.00,Wunderground PWS Mod,2013-04-14 16:34:00,
2013-04-14 12:40:00,87.0,72.4,29.88,West,259,1.0,4.0,62,0.00,,,0.00,Wunderground PWS Mod,2013-04-14 16:40:00,
2013-04-14 12:46:00,86.3,72.7,29.88,SSE,161,1.0,1.0,64,0.00,,,0.00,Wunderground PWS Mod,2013-04-14 16:46:00,
2013-04-14 12:52:00,86.5,73.3,29.88,SW,215,2.0,2.0,65,0.00,,,0.00,Wunderground PWS Mod,2013-04-14 16:52:00,
2013-04-14 12:58:00,86.7,73.1,29.88,South,181,2.0,4.0,64,0.00,,,0.00,Wunderground PWS Mod,2013-04-14 16:58:00,
2013-04-14 13:04:00,86.7,73.1,29.88,South,169,2.0,4.0,64,0.00,,,0.00,Wunderground PWS Mod,2013-04-14 17:04:00,
2013-04-14 13:06:00,87.8,72.7,29.87,SW,225,3.0,4.0,61,0.00,,,0.00,Wunderground PWS Mod,2013-04-14 17:06:00,
2013-04-14 13:10:00,86.7,73.5,29.88,SW,223,2.0,4.0,65,0.00,,,0.00,Wunderground PWS Mod,2013-04-14 17:10:00,
2013-04-14 13:18:00,87.4,73.3,29.88,South,169,1.0,6.0,63,0.00,,,0.00,Wunderground PWS Mod,2013-04-14 17:18:00,
2013-04-14 13:24:00,87.8,73.2,29.87,South,169,1.0,1.0,62,0.00,,,0.00,Wunderground PWS Mod,2013-04-14 17:24:00,
2013-04-14 13:30:00,87.8,73.2,29.87,South,184,1.0,2.0,62,0.00,,,0.00,Wunderground PWS Mod,2013-04-14 17:30:00,
2013-04-14 13:32:00,88.8,72.6,29.85,West,270,3.0,6.0,59,0.00,,,0.00,Wunderground PWS Mod,2013-04-14 17:32:00,
2013-04-14 13:36:00,88.4,72.7,29.86,WSW,243,1.0,5.0,60,0.00,,,0.00,Wunderground PWS Mod,2013-04-14 17:36:00,
2013-04-14 13:42:00,89.0,72.8,29.86,South,180,1.0,2.0,59,0.00,,,0.00,Wunderground PWS Mod,2013-04-14 17:42:00,
2013-04-14 13:48:00,88.6,73.4,29.86,SSE,153,2.0,4.0,61,0.00,,,0.00,Wunderground PWS Mod,2013-04-14 17:48:00,
2013-04-14 13:54:00,88.6,73.4,29.86,South,176,1.0,2.0,61,0.00,,,0.00,Wunderground PWS Mod,2013-04-14 17:54:00,
2013-04-14 13:58:00,88.8,73.6,29.85,SSE,158,2.0,4.0,61,0.00,,,0.00,Wunderground PWS Mod,2013-04-14 17:58:00,
2013-04-14 14:00:00,88.6,73.4,29.86,South,180,1.0,3.0,61,0.00,,,0.00,Wunderground PWS Mod,2013-04-14 18:00:00,
2013-04-14 14:02:00,88.6,72.9,29.85,SSW,203,1.0,5.0,60,0.00,,,0.00,Wunderground PWS Mod,2013-04-14 18:02:00,
2013-04-14 14:04:00,88.6,73.9,29.85,South,180,2.0,5.0,62,0.00,,,0.00,Wunderground PWS Mod,2013-04-14 18:04:00,
2013-04-14 14:06:00,88.4,72.7,29.85,SSE,163,2.0,2.0,60,0.00,,,0.00,Wunderground PWS Mod,2013-04-14 18:06:00,
2013-04-14 14:08:00,88.9,73.7,29.85,SSW,203,0.0,1.0,61,0.00,,,0.00,Wunderground PWS Mod,2013-04-14 18:08:00,
2013-04-14 14:10:00,89.0,73.3,29.85,N/A,-737280,0.0,0.0,60,0.00,,,0.00,Wunderground PWS Mod,2013-04-14 18:10:00,
2013-04-14 14:12:00,89.0,74.3,29.85,South,180,1.0,3.0,62,0.00,,,0.00,Wunderground PWS Mod,2013-04-14 18:12:00,
2013-04-14 14:14:00,89.0,73.3,29.85,SW,225,1.0,3.0,60,0.00,,,0.00,Wunderground PWS Mod,2013-04-14 18:14:00,
2013-04-14 14:20:00,88.6,72.9,29.85,South,177,2.0,4.0,60,0.00,,,0.00,Wunderground PWS Mod,2013-04-14 18:20:00,
2013-04-14 14:26:00,88.8,73.1,29.85,South,169,2.0,7.0,60,0.00,,,0.00,Wunderground PWS Mod,2013-04-14 18:26:00,
2013-04-14 14:32:00,89.0,74.3,29.85,SSE,167,1.0,2.0,62,0.00,,,0.00,Wunderground PWS Mod,2013-04-14 18:32:00,
2013-04-14 14:38:00,89.0,73.8,29.84,SW,218,1.0,4.0,61,0.00,,,0.00,Wunderground PWS Mod,2013-04-14 18:38:00,
2013-04-14 14:44:00,88.2,73.0,29.84,SW,231,2.0,5.0,61,0.00,,,0.00,Wunderground PWS Mod,2013-04-14 18:44:00,
2013-04-14 14:50:00,88.2,72.6,29.84,SSW,206,2.0,5.0,60,0.00,,,0.00,Wunderground PWS Mod,2013-04-14 18:50:00,
2013-04-14 14:54:00,88.8,73.1,29.83,WSW,248,1.0,3.0,60,0.00,,,0.00,Wunderground PWS Mod,2013-04-14 18:54:00,
2013-04-14 14:56:00,88.0,73.3,29.84,South,178,2.0,10.0,62,0.00,,,0.00,Wunderground PWS Mod,2013-04-14 18:56:00,
2013-04-14 15:02:00,88.0,72.9,29.84,South,184,2.0,5.0,61,0.00,,,0.00,Wunderground PWS Mod,2013-04-14 19:02:00,
2013-04-14 15:08:00,88.2,73.5,29.83,South,185,1.0,4.0,62,0.00,,,0.00,Wunderground PWS Mod,2013-04-14 19:08:00,
2013-04-14 15:14:00,88.8,73.1,29.83,West,259,1.0,1.0,60,0.00,,,0.00,Wunderground PWS Mod,2013-04-14 19:14:00,
2013-04-14 15:20:00,89.3,73.1,29.83,SSE,156,1.0,1.0,59,0.00,,,0.00,Wunderground PWS Mod,2013-04-14 19:20:00,
2013-04-14 15:26:00,89.7,73.0,29.83,ESE,118,1.0,4.0,58,0.00,,,0.00,Wunderground PWS Mod,2013-04-14 19:26:00,
2013-04-14 15:32:00,89.7,71.9,29.83,South,179,2.0,5.0,56,0.00,,,0.00,Wunderground PWS Mod,2013-04-14 19:32:00,
2013-04-14 15:38:00,89.7,71.9,29.83,SW,216,2.0,4.0,56,0.00,,,0.00,Wunderground PWS Mod,2013-04-14 19:38:00,
2013-04-14 15:44:00,89.3,71.0,29.83,SSW,203,2.0,2.0,55,0.00,,,0.00,Wunderground PWS Mod,2013-04-14 19:44:00,
2013-04-14 15:50:00,89.7,71.4,29.82,South,184,1.0,1.0,55,0.00,,,0.00,Wunderground PWS Mod,2013-04-14 19:50:00,
2013-04-14 15:56:00,89.5,71.2,29.82,South,191,1.0,3.0,55,0.00,,,0.00,Wunderground PWS Mod,2013-04-14 19:56:00,
2013-04-14 16:02:00,89.3,71.5,29.82,South,174,2.0,6.0,56,0.00,,,0.00,Wunderground PWS Mod,2013-04-14 20:02:00,
2013-04-14 16:08:00,88.6,70.4,29.81,SSW,200,2.0,2.0,55,0.00,,,0.00,Wunderground PWS Mod,2013-04-14 20:08:00,
2013-04-14 16:14:00,88.4,70.2,29.81,SSW,195,2.0,7.0,55,0.00,,,0.00,Wunderground PWS Mod,2013-04-14 20:14:00,
2013-04-14 16:20:00,88.2,71.0,29.80,South,171,2.0,5.0,57,0.00,,,0.00,Wunderground PWS Mod,2013-04-14 20:20:00,
2013-04-14 16:26:00,88.0,70.3,29.80,West,267,2.0,5.0,56,0.00,,,0.00,Wunderground PWS Mod,2013-04-14 20:26:00,
2013-04-14 16:32:00,88.2,70.5,29.80,SSW,205,2.0,11.0,56,0.00,,,0.00,Wunderground PWS Mod,2013-04-14 20:32:00,
2013-04-14 16:38:00,88.2,69.5,29.80,SSW,208,2.0,5.0,54,0.00,,,0.00,Wunderground PWS Mod,2013-04-14 20:38:00,
2013-04-14 16:44:00,88.0,69.8,29.80,SSE,157,2.0,4.0,55,0.00,,,0.00,Wunderground PWS Mod,2013-04-14 20:44:00,
2013-04-14 16:50:00,88.0,69.3,29.80,SSW,196,2.0,5.0,54,0.00,,,0.00,Wunderground PWS Mod,2013-04-14 20:50:00,
2013-04-14 16:58:00,87.6,70.0,29.80,SSE,166,2.0,4.0,56,0.00,,,0.00,Wunderground PWS Mod,2013-04-14 20:58:00,
2013-04-14 17:04:00,88.0,70.3,29.80,SW,217,2.0,9.0,56,0.00,,,0.00,Wunderground PWS Mod,2013-04-14 21:04:00,
2013-04-14 17:10:00,88.2,70.5,29.80,SW,220,1.0,6.0,56,0.00,,,0.00,Wunderground PWS Mod,2013-04-14 21:10:00,
2013-04-14 17:16:00,88.2,70.5,29.80,SSE,167,1.0,9.0,56,0.00,,,0.00,Wunderground PWS Mod,2013-04-14 21:16:00,
2013-04-14 17:22:00,87.8,70.1,29.80,SSE,166,2.0,4.0,56,0.00,,,0.00,Wunderground PWS Mod,2013-04-14 21:22:00,
2013-04-14 17:28:00,87.6,71.0,29.80,SSW,196,1.0,4.0,58,0.00,,,0.00,Wunderground PWS Mod,2013-04-14 21:28:00,
2013-04-14 17:34:00,87.2,70.6,29.80,South,191,1.0,6.0,58,0.00,,,0.00,Wunderground PWS Mod,2013-04-14 21:34:00,
2013-04-14 17:40:00,87.0,70.4,29.80,ESE,117,1.0,4.0,58,0.00,,,0.00,Wunderground PWS Mod,2013-04-14 21:40:00,
2013-04-14 17:46:00,86.7,70.2,29.80,SSW,202,1.0,9.0,58,0.00,,,0.00,Wunderground PWS Mod,2013-04-14 21:46:00,
2013-04-14 17:52:00,86.5,70.5,29.80,South,169,1.0,4.0,59,0.00,,,0.00,Wunderground PWS Mod,2013-04-14 21:52:00,
2013-04-14 17:58:00,86.3,70.3,29.80,South,188,1.0,5.0,59,0.00,,,0.00,Wunderground PWS Mod,2013-04-14 21:58:00,
2013-04-14 18:04:00,86.3,70.8,29.81,SSW,208,1.0,4.0,60,0.00,,,0.00,Wunderground PWS Mod,2013-04-14 22:04:00,
2013-04-14 18:10:00,86.1,70.6,29.81,SW,225,0.0,3.0,60,0.00,,,0.00,Wunderground PWS Mod,2013-04-14 22:10:00,
2013-04-14 18:16:00,85.9,70.4,29.81,South,175,1.0,2.0,60,0.00,,,0.00,Wunderground PWS Mod,2013-04-14 22:16:00,
2013-04-14 18:22:00,85.5,70.5,29.82,WSW,238,1.0,4.0,61,0.00,,,0.00,Wunderground PWS Mod,2013-04-14 22:22:00,
2013-04-14 18:28:00,85.3,70.3,29.82,South,171,1.0,3.0,61,0.00,,,0.00,Wunderground PWS Mod,2013-04-14 22:28:00,
2013-04-14 18:34:00,85.1,70.1,29.83,SSW,198,1.0,5.0,61,0.00,,,0.00,Wunderground PWS Mod,2013-04-14 22:34:00,
2013-04-14 18:40:00,84.7,69.8,29.83,SSW,201,1.0,4.0,61,0.00,,,0.00,Wunderground PWS Mod,2013-04-14 22:40:00,
2013-04-14 18:42:00,83.8,70.3,29.83,N/A,-737280,0.0,0.0,64,0.00,,,0.00,Wunderground PWS Mod,2013-04-14 22:42:00,
2013-04-14 18:46:00,84.3,69.9,29.83,SW,230,1.0,3.0,62,0.00,,,0.00,Wunderground PWS Mod,2013-04-14 22:46:00,
2013-04-14 18:58:00,84.0,70.5,29.83,SW,229,1.0,1.0,64,0.00,,,0.00,Wunderground PWS Mod,2013-04-14 22:58:00,
2013-04-14 19:04:00,83.8,70.8,29.83,South,188,0.0,1.0,65,0.00,,,0.00,Wunderground PWS Mod,2013-04-14 23:04:00,
2013-04-14 19:08:00,82.4,70.8,29.83,WSW,248,2.0,3.0,68,0.00,,,0.00,Wunderground PWS Mod,2013-04-14 23:08:00,
2013-04-14 19:10:00,83.4,70.4,29.83,South,182,0.0,3.0,65,0.00,,,0.00,Wunderground PWS Mod,2013-04-14 23:10:00,
2013-04-14 19:16:00,83.0,70.5,29.83,South,182,0.0,1.0,66,0.00,,,0.00,Wunderground PWS Mod,2013-04-14 23:16:00,
2013-04-14 19:22:00,82.6,70.5,29.83,SSW,211,0.0,1.0,67,0.00,,,0.00,Wunderground PWS Mod,2013-04-14 23:22:00,
2013-04-14 19:28:00,82.4,70.8,29.83,WSW,239,0.0,2.0,68,0.00,,,0.00,Wunderground PWS Mod,2013-04-14 23:28:00,
2013-04-14 19:34:00,82.0,70.8,29.83,SSW,194,0.0,1.0,69,0.00,,,0.00,Wunderground PWS Mod,2013-04-14 23:34:00,
2013-04-14 19:38:00,80.7,71.2,29.83,N/A,-737280,0.0,0.0,73,0.00,,,0.00,Wunderground PWS Mod,2013-04-14 23:38:00,
2013-04-14 19:40:00,81.8,71.1,29.83,SSW,194,0.0,1.0,70,0.00,,,0.00,Wunderground PWS Mod,2013-04-14 23:40:00,
2013-04-14 19:48:00,81.2,70.9,29.83,SSW,194,0.0,0.0,71,0.00,,,0.00,Wunderground PWS Mod,2013-04-14 23:48:00,
2013-04-14 19:54:00,80.9,71.0,29.83,SSW,205,0.0,0.0,72,0.00,,,0.00,Wunderground PWS Mod,2013-04-14 23:54:00,
2013-04-14 20:00:00,80.5,71.0,29.83,SSW,205,0.0,0.0,73,0.00,,,0.00,Wunderground PWS Mod,2013-04-15 00:00:00,
2013-04-14 20:02:00,79.6,71.4,29.84,N/A,-737280,0.0,0.0,76,0.00,,,0.00,Wunderground PWS Mod,2013-04-15 00:02:00,
2013-04-14 20:08:00,80.1,71.1,29.84,SSW,199,0.0,2.0,74,0.00,,,0.00,Wunderground PWS Mod,2013-04-15 00:08:00,
2013-04-14 20:14:00,79.9,71.3,29.84,SSW,199,0.0,1.0,75,0.00,,,0.00,Wunderground PWS Mod,2013-04-15 00:14:00,
2013-04-14 20:20:00,79.6,71.4,29.84,SSW,199,0.0,0.0,76,0.00,,,0.00,Wunderground PWS Mod,2013-04-15 00:20:00,
2013-04-14 20:28:00,79.2,71.4,29.84,South,180,0.0,3.0,77,0.00,,,0.00,Wunderground PWS Mod,2013-04-15 00:28:00,
2013-04-14 20:34:00,79.0,71.6,29.85,South,180,0.0,0.0,78,0.00,,,0.00,Wunderground PWS Mod,2013-04-15 00:34:00,
2013-04-14 20:40:00,78.8,71.4,29.85,South,180,0.0,0.0,78,0.00,,,0.00,Wunderground PWS Mod,2013-04-15 00:40:00,
2013-04-14 20:46:00,78.5,71.4,29.85,South,185,0.0,0.0,79,0.00,,,0.00,Wunderground PWS Mod,2013-04-15 00:46:00,
2013-04-14 20:52:00,78.3,71.6,29.85,South,185,0.0,0.0,80,0.00,,,0.00,Wunderground PWS Mod,2013-04-15 00:52:00,
2013-04-14 20:58:00,78.1,71.4,29.85,South,185,0.0,0.0,80,0.00,,,0.00,Wunderground PWS Mod,2013-04-15 00:58:00,
2013-04-14 21:04:00,77.9,71.6,29.86,South,185,0.0,0.0,81,0.00,,,0.00,Wunderground PWS Mod,2013-04-15 01:04:00,
2013-04-14 21:10:00,77.7,71.4,29.86,South,185,0.0,0.0,81,0.00,,,0.00,Wunderground PWS Mod,2013-04-15 01:10:00,
2013-04-14 21:16:00,77.7,71.8,29.86,South,185,0.0,0.0,82,0.00,,,0.00,Wunderground PWS Mod,2013-04-15 01:16:00,
2013-04-14 21:22:00,77.6,71.7,29.86,South,185,0.0,0.0,82,0.00,,,0.00,Wunderground PWS Mod,2013-04-15 01:22:00,
2013-04-14 21:26:00,76.7,71.1,29.87,N/A,-737280,0.0,0.0,83,0.00,,,0.00,Wunderground PWS Mod,2013-04-15 01:26:00,
2013-04-14 21:28:00,77.4,71.5,29.86,South,185,0.0,0.0,82,0.00,,,0.00,Wunderground PWS Mod,2013-04-15 01:28:00,
2013-04-14 21:34:00,77.2,71.6,29.87,South,185,0.0,0.0,83,0.00,,,0.00,Wunderground PWS Mod,2013-04-15 01:34:00,
2013-04-14 21:40:00,77.0,71.4,29.87,South,185,0.0,0.0,83,0.00,,,0.00,Wunderground PWS Mod,2013-04-15 01:40:00,
2013-04-14 21:46:00,76.7,71.1,29.87,South,185,0.0,0.0,83,0.00,,,0.00,Wunderground PWS Mod,2013-04-15 01:46:00,
2013-04-14 21:52:00,76.5,71.3,29.88,South,185,0.0,0.0,84,0.00,,,0.00,Wunderground PWS Mod,2013-04-15 01:52:00,
2013-04-14 21:56:00,75.8,71.0,29.88,N/A,-737280,0.0,0.0,85,0.00,,,0.00,Wunderground PWS Mod,2013-04-15 01:56:00,
2013-04-14 21:58:00,76.1,70.9,29.88,South,185,0.0,0.0,84,0.00,,,0.00,Wunderground PWS Mod,2013-04-15 01:58:00,
2013-04-14 22:04:00,76.0,71.2,29.88,South,185,0.0,0.0,85,0.00,,,0.00,Wunderground PWS Mod,2013-04-15 02:04:00,
2013-04-14 22:10:00,76.0,71.2,29.88,South,185,0.0,0.0,85,0.00,,,0.00,Wunderground PWS Mod,2013-04-15 02:10:00,
2013-04-14 22:16:00,75.8,71.0,29.88,South,185,0.0,0.0,85,0.00,,,0.00,Wunderground PWS Mod,2013-04-15 02:16:00,
2013-04-14 22:22:00,75.6,70.8,29.89,South,185,0.0,0.0,85,0.00,,,0.00,Wunderground PWS Mod,2013-04-15 02:22:00,
2013-04-14 22:28:00,75.4,70.9,29.89,South,185,0.0,0.0,86,0.00,,,0.00,Wunderground PWS Mod,2013-04-15 02:28:00,
2013-04-14 22:30:00,74.9,70.8,29.89,N/A,-737280,0.0,0.0,87,0.00,,,0.00,Wunderground PWS Mod,2013-04-15 02:30:00,
2013-04-14 22:32:00,74.9,70.8,29.89,N/A,-737280,0.0,0.0,87,0.00,,,0.00,Wunderground PWS Mod,2013-04-15 02:32:00,
2013-04-14 22:34:00,75.3,70.8,29.89,South,185,0.0,0.0,86,0.00,,,0.00,Wunderground PWS Mod,2013-04-15 02:34:00,
2013-04-14 22:36:00,74.9,71.1,29.89,N/A,-737280,0.0,0.0,88,0.00,,,0.00,Wunderground PWS Mod,2013-04-15 02:36:00,
2013-04-14 22:38:00,74.9,71.1,29.89,N/A,-737280,0.0,0.0,88,0.00,,,0.00,Wunderground PWS Mod,2013-04-15 02:38:00,
2013-04-14 22:40:00,75.1,71.0,29.89,South,185,0.0,0.0,87,0.00,,,0.00,Wunderground PWS Mod,2013-04-15 02:40:00,
2013-04-14 22:42:00,74.7,70.9,29.89,N/A,-737280,0.0,0.0,88,0.00,,,0.00,Wunderground PWS Mod,2013-04-15 02:42:00,
2013-04-14 22:44:00,74.7,70.9,29.89,N/A,-737280,0.0,0.0,88,0.00,,,0.00,Wunderground PWS Mod,2013-04-15 02:44:00,
2013-04-14 22:46:00,75.1,71.0,29.89,South,185,0.0,0.0,87,0.00,,,0.00,Wunderground PWS Mod,2013-04-15 02:46:00,
2013-04-14 22:48:00,74.7,70.9,29.89,N/A,-737280,0.0,0.0,88,0.00,,,0.00,Wunderground PWS Mod,2013-04-15 02:48:00,
2013-04-14 22:50:00,74.7,71.2,29.89,N/A,-737280,0.0,0.0,89,0.00,,,0.00,Wunderground PWS Mod,2013-04-15 02:50:00,
2013-04-14 22:52:00,74.6,70.8,29.89,N/A,-737280,0.0,0.0,88,0.00,,,0.00,Wunderground PWS Mod,2013-04-15 02:52:00,
2013-04-14 22:54:00,74.6,71.1,29.89,N/A,-737280,0.0,0.0,89,0.00,,,0.00,Wunderground PWS Mod,2013-04-15 02:54:00,
2013-04-14 22:56:00,74.6,71.1,29.89,N/A,-737280,0.0,0.0,89,0.00,,,0.00,Wunderground PWS Mod,2013-04-15 02:56:00,
2013-04-14 22:58:00,74.6,71.1,29.89,N/A,-737280,0.0,0.0,89,0.00,,,0.00,Wunderground PWS Mod,2013-04-15 02:58:00,
2013-04-14 23:00:00,74.7,71.2,29.90,N/A,-737280,0.0,0.0,89,0.00,,,0.00,Wunderground PWS Mod,2013-04-15 03:00:00,
2013-04-14 23:04:00,74.7,70.9,29.89,South,185,0.0,0.0,88,0.00,,,0.00,Wunderground PWS Mod,2013-04-15 03:04:00,
2013-04-14 23:10:00,74.7,71.2,29.89,South,185,0.0,0.0,89,0.00,,,0.00,Wunderground PWS Mod,2013-04-15 03:10:00,
2013-04-14 23:16:00,74.6,71.1,29.89,South,185,0.0,0.0,89,0.00,,,0.00,Wunderground PWS Mod,2013-04-15 03:16:00,
2013-04-14 23:22:00,74.7,71.2,29.90,South,185,0.0,0.0,89,0.00,,,0.00,Wunderground PWS Mod,2013-04-15 03:22:00,
2013-04-14 23:24:00,74.7,70.9,29.91,N/A,-737280,0.0,0.0,88,0.00,,,0.00,Wunderground PWS Mod,2013-04-15 03:24:00,
2013-04-14 23:28:00,74.7,70.9,29.90,South,185,0.0,0.0,88,0.00,,,0.00,Wunderground PWS Mod,2013-04-15 03:28:00,
2013-04-14 23:34:00,74.7,70.9,29.91,South,185,0.0,0.0,88,0.00,,,0.00,Wunderground PWS Mod,2013-04-15 03:34:00,
2013-04-14 23:40:00,74.7,70.9,29.91,South,185,0.0,0.0,88,0.00,,,0.00,Wunderground PWS Mod,2013-04-15 03:40:00,
2013-04-14 23:48:00,74.7,70.9,29.91,South,185,0.0,0.0,88,0.00,,,0.00,Wunderground PWS Mod,2013-04-15 03:48:00,
2013-04-14 23:54:00,74.4,70.6,29.91,South,185,0.0,0.0,88,0.00,,,0.00,Wunderground PWS Mod,2013-04-15 03:54:00,